Content
SEND FEEDBACK

Daily
Averages
Monthly
Summary
United States of America

PYGA BEACH, GUAM


Home > North America > United States > Guam
Elevation: 20 feet     Latitude: 13 17N     Longitude: 144 39E

WEATHER
 
SELECT A DAY
Number of Records: 354,701;   Date Range: 1/1/95 - 11/26/14
 
SHARE

PRINT THIS DATA

[ ← Previous Day ]
WEATHER ALMANAC - FEBRUARY 8, 2013
[ Next Day → ]
[ °C ]   °F
Weather ElementAverageHighLow
Temperature78.9 °F84.2 °F (12:47 pm)76.6 °F (10:55 pm)
Dewpoint72.3 °F73.4 °F (12:04 am)69.6 °F (6:55 pm)
Humidity80.5 %89 % (12:04 am)66 % (1:16 pm)
Barometer29.85 in29.91 in (9:55 am)29.81 in (4:44 am)
Wind Speed13.8 mph17.3 mph (12:10 am)
Wind Gust21.9 mph (12:10 am)
Weather ElementAverage
Visibility10 mi
Wind DirectionE (87 °)

Weather ElementTotal
Precipitation---
Cooling Degree Days15.4 (Base 65)
Growing Degree Days30.4 (Base 50)
Averaged from 64 records on February 8, 2013
WEATHER CONDITIONS BREAKOUT
WIND DIRECTION BREAKOUT
WEATHER BY HOUR - FEBRUARY 8, 2013
[ °C ]   °F
Local TimeTemperatureDewpointHumidityBarometerVisibilityWind DirectionWind SpeedGust SpeedPrecipitationEventsConditions
12:04 AM77.0 °F73.4 °F89 %29.83 in10.0 miEast (100°)16.1 mphMostly Cloudy
12:05 AM77.0 °F73.4 °F89 %29.83 in10.0 miEast (100°)15.0 mphMostly Cloudy
12:10 AM77.0 °F73.4 °F89 %29.83 in10.0 miEast (90°)17.3 mph21.9 mphMostly Cloudy
12:55 AM77.4 °F73.2 °F87 %29.83 in10.0 miEast (100°)16.1 mphClear
1:26 AM77.0 °F73.4 °F89 %29.83 in10.0 miEast (90°)12.7 mphMostly Cloudy
1:28 AM77.0 °F73.4 °F89 %29.83 in10.0 miEast (90°)13.8 mphScattered Clouds
1:31 AM77.0 °F73.4 °F89 %29.83 in10.0 miEast (90°)13.8 mphMostly Cloudy
1:33 AM77.0 °F73.4 °F89 %29.83 in10.0 miEast (100°)13.8 mphScattered Clouds
1:42 AM77.0 °F73.4 °F89 %29.82 in10.0 miEast (90°)15.0 mphMostly Cloudy
1:46 AM77.0 °F73.4 °F89 %29.83 in10.0 miEast (100°)15.0 mphScattered Clouds
1:55 AM77.2 °F73.4 °F88 %29.83 in10.0 miEast (90°)11.5 mphPartly Cloudy
2:08 AM77.0 °F73.4 °F89 %29.82 in10.0 miEast (80°)16.1 mphMostly Cloudy
2:09 AM77.0 °F73.4 °F89 %29.82 in10.0 miEast (90°)16.1 mphScattered Clouds
2:55 AM77.2 °F72.3 °F85 %29.82 in10.0 miEast (100°)11.5 mphPartly Cloudy
3:42 AM77.0 °F73.4 °F89 %29.82 in10.0 miEast (90°)13.8 mphMostly Cloudy
3:55 AM77.5 °F73.2 °F86 %29.82 in10.0 miEast (80°)12.7 mphMostly Cloudy
4:44 AM77.0 °F71.6 °F83 %29.81 in10.0 miESE (110°)12.7 mphScattered Clouds
4:55 AM77.2 °F71.8 °F83 %29.82 in10.0 miEast (100°)13.8 mphPartly Cloudy
5:52 AM77.0 °F73.4 °F89 %29.84 in10.0 miEast (80°)13.8 mphMostly Cloudy
5:55 AM77.2 °F72.7 °F86 %29.84 in10.0 miEast (90°)12.7 mphMostly Cloudy
6:16 AM77.0 °F73.4 °F89 %29.85 in10.0 miEast (80°)15.0 mphMostly Cloudy
6:22 AM77.0 °F71.6 °F83 %29.85 in10.0 miEast (90°)13.8 mphMostly Cloudy
6:24 AM77.0 °F71.6 °F83 %29.85 in10.0 miEast (80°)10.4 mphMostly Cloudy
6:25 AM77.0 °F71.6 °F83 %29.85 in10.0 miEast (80°)11.5 mphMostly Cloudy
6:33 AM77.0 °F71.6 °F83 %29.86 in10.0 miEast (100°)12.7 mphScattered Clouds
6:42 AM77.0 °F71.6 °F83 %29.86 in10.0 miEast (90°)15.0 mphMostly Cloudy
6:47 AM77.0 °F71.6 °F83 %29.86 in10.0 miEast (90°)12.7 mphScattered Clouds
6:55 AM77.2 °F72.1 °F84 %29.86 in10.0 miEast (80°)12.7 mphScattered Clouds
7:03 AM77.0 °F71.6 °F83 %29.86 in10.0 miEast (90°)12.7 mphMostly Cloudy
7:17 AM77.0 °F71.6 °F83 %29.87 in10.0 miEast (90°)16.1 mphScattered Clouds
7:41 AM78.8 °F71.6 °F78 %29.88 in10.0 miEast (90°)13.8 mphMostly Cloudy
7:49 AM78.8 °F71.6 °F78 %29.88 in10.0 miEast (90°)13.8 mphScattered Clouds
7:52 AM78.8 °F71.6 °F78 %29.88 in10.0 miEast (80°)15.0 mphMostly Cloudy
7:54 AM78.8 °F71.6 °F78 %29.88 in10.0 miEast (90°)16.1 mphScattered Clouds
7:55 AM78.1 °F72.3 °F82 %29.88 in10.0 miEast (90°)16.1 mphMostly Cloudy
8:13 AM78.8 °F71.6 °F78 %29.88 in10.0 miEast (100°)13.8 mphScattered Clouds
8:55 AM80.8 °F72.3 °F75 %29.90 in10.0 miEast (90°)16.1 mphPartly Cloudy
9:55 AM82.6 °F72.3 °F71 %29.91 in10.0 miEast (90°)13.8 mphScattered Clouds
10:55 AM82.4 °F72.9 °F73 %29.90 in10.0 miEast (90°)15.0 mphPartly Cloudy
11:55 AM82.9 °F73.4 °F73 %29.88 in10.0 miEast (90°)15.0 mphScattered Clouds
12:02 PM82.4 °F73.4 °F74 %29.87 in10.0 miEast (80°)13.8 mphMostly Cloudy
12:12 PM82.4 °F73.4 °F74 %29.87 in10.0 miEast (90°)16.1 mphScattered Clouds
12:47 PM84.2 °F73.4 °F70 %29.85 in10.0 miEast (80°)15.0 mphMostly Cloudy
12:55 PM83.5 °F73.2 °F71 %29.85 in10.0 miEast (90°)13.8 mphMostly Cloudy
1:16 PM84.2 °F71.6 °F66 %29.84 in10.0 miEast (100°)15.0 mphScattered Clouds
1:33 PM84.2 °F73.4 °F70 %29.84 in10.0 miEast (100°)13.8 mphMostly Cloudy
1:37 PM84.2 °F73.4 °F70 %29.84 in10.0 miEast (80°)12.7 mphScattered Clouds
1:55 PM83.7 °F72.7 °F69 %29.83 in10.0 miEast (90°)13.8 mphScattered Clouds
2:55 PM83.8 °F72.1 °F68 %29.82 in10.0 miEast (90°)15.0 mphScattered Clouds
3:55 PM81.1 °F71.8 °F73 %29.82 in10.0 miEast (80°)15.0 mphScattered Clouds
4:07 PM82.4 °F71.6 °F70 %29.82 in10.0 miEast (80°)15.0 mphMostly Cloudy
4:19 PM82.4 °F71.6 °F70 %29.82 in10.0 miENE (70°)13.8 mphScattered Clouds
4:55 PM80.4 °F72.5 °F77 %29.83 in10.0 miENE (70°)12.7 mphScattered Clouds
4:58 PM80.6 °F71.6 °F74 %29.83 in10.0 miEast (80°)15.0 mphMostly Cloudy
5:02 PM80.6 °F71.6 °F74 %29.83 in10.0 miENE (70°)13.8 mphScattered Clouds
5:55 PM79.3 °F71.1 °F76 %29.84 in10.0 miEast (80°)15.0 mphMostly Cloudy
6:55 PM77.7 °F69.6 °F76 %29.86 in10.0 miEast (80°)12.7 mphClear
7:55 PM77.4 °F70.0 °F78 %29.88 in10.0 miEast (80°)10.4 mphClear
8:55 PM77.2 °F70.3 °F79 %29.90 in10.0 miEast (80°)12.7 mphClear
9:55 PM77.0 °F71.6 °F83 %29.90 in10.0 miENE (70°)9.2 mphPartly Cloudy
10:16 PM77.0 °F71.6 °F83 %29.90 in10.0 miENE (70°)10.4 mphMostly Cloudy
10:25 PM77.0 °F71.6 °F83 %29.90 in10.0 miENE (70°)10.4 mphScattered Clouds
10:55 PM76.6 °F71.4 °F84 %29.89 in10.0 miEast (80°)11.5 mphClear
11:55 PM77.0 °F72.7 °F86 %29.88 in10.0 miEast (80°)12.7 mphScattered Clouds
Hourly data recorded from PGUA, located miles away from Pyga Beach, Guam







STORIES FROM OUR PARTNERS